Wind_Gust
19 22 14 16 18 22 25 21 28 23 29 29 30 30 34 24 17 21 21 14 20 22 12 11 11 14 21 20 16 19 22 18 20 24 16 22 16 25 23 26 30 29 28 30 29 28 25 22 21 22 22 22 21 20 20 19 17 16 16 15 15 13 14 15 15 14 14 14 15 15 16 17 17 16 16 16 16 15 16 17 17 17 18 17 18 17 16 17 17 17 18 19 19 19 18 18 16
21 14 14 14 20 21 23 12 31 26 30 33 32 26 27 30 25 22 22 23 17 22 15 16 14 11 11 13 14 14 23 22 21 26 21 18 23 24 24 28 29 29 28 29 28 26 25 26 21 21 22 22 21 21 20 20 18 17 17 16 15 16 16 16 15 15 15 15 16 16 16 17 17 17 17 17 16 16 15 16 16 17 17 17 17 17 16 16 16 16 17 18 18 18 17 16 15
20 17 20 19 21 23 26 27 35 28 30 33 30 31 23 28 26 24 21 15 17 12 12 12 13 13 16 14 21 20 19 18 23 24 25 20 26 23 25 27 27 29 28 28 28 27 25 23 20 21 23 22 21 21 20 20 18 18 17 16 15 16 16 16 16 16 15 16 16 17 17 17 17 18 18 17 17 16 16 15 16 17 16 16 16 16 15 15 15 15 15 16 16 16 15 14 13
20 17 21 16 26 21 25 27 29 31 33 31 32 24 26 27 30 20 20 16 11 11 11 15 19 20 17 21 18 14 21 15 19 21 28 24 23 29 27 26 26 29 28 28 27 27 24 24 20 22 23 22 21 21 20 19 19 18 17 17 16 16 15 16 16 16 16 17 17 18 17 17 18 19 19 18 17 16 15 15 15 16 15 14 14 14 14 13 13 13 12 12 12 13 12 11 9
20 18 17 22 23 29 29 28 31 31 34 30 32 26 28 27 18 14 13 14 11 14 12 15 20 15 13 17 12 21 22 18 16 16 25 22 26 28 28 26 27 28 29 27 27 27 27 24 20 21 23 23 21 21 20 19 18 17 17 16 16 16 16 16 17 17 17 17 18 18 18 18 18 19 19 19 18 17 16 16 15 15 15 15 15 14 13 12 11 11 11 12 11 11 11 8 7
19 20 16 21 30 22 30 31 30 33 30 32 32 29 29 17 18 11 11 10 13 13 15 15 21 18 21 13 24 21 14 16 17 17 23 24 28 29 28 24 27 29 27 26 26 25 28 23 20 20 22 22 21 20 19 18 18 18 17 17 17 16 16 16 17 18 18 18 18 18 19 19 19 18 18 18 17 16 16 15 15 14 13 13 13 13 13 12 10 9 10 10 11 10 8 7 7
22 20 23 21 30 28 30 34 36 34 34 30 35 32 36 16 14 13 14 14 13 16 12 18 15 13 21 21 20 22 16 18 18 20 19 26 28 28 27 26 26 27 26 26 25 26 29 21 19 19 22 22 22 20 19 18 17 16 16 17 16 16 17 16 16 17 18 18 18 18 19 18 18 18 17 17 17 16 16 15 14 13 12 11 11 11 10 10 9 9 9 10 9 7 7 6 7
19 24 21 26 26 29 32 33 37 36 34 32 31 33 32 13 11 12 12 15 19 23 18 17 17 21 18 16 17 16 11 15 23 21 25 28 27 27 24 25 26 27 27 25 25 25 25 19 20 20 22 21 21 21 19 18 17 16 16 17 17 16 16 16 16 16 17 18 18 18 18 18 18 17 18 17 17 17 16 16 16 14 13 13 12 12 10 9 9 9 9 9 8 6 6 8 8
22 25 21 27 30 33 32 34 34 33 36 34 34 28 19 15 13 14 18 17 20 15 15 16 18 23 20 17 18 14 15 13 23 24 26 27 28 26 26 26 28 28 26 27 28 26 26 19 20 20 21 21 21 21 19 18 17 16 16 16 16 14 15 16 17 17 17 17 17 17 17 18 18 17 17 16 16 15 15 15 14 13 11 11 10 10 10 10 8 8 9 8 7 6 6 8 9
25 25 27 31 25 34 33 34 34 32 37 32 35 30 26 24 21 18 20 24 24 19 19 16 17 21 20 18 19 15 18 22 24 25 26 27 27 24 22 24 25 26 26 29 27 26 25 22 19 18 18 20 19 19 17 16 15 14 15 16 14 14 16 16 16 17 17 17 17 17 17 17 16 16 16 16 15 14 14 14 14 13 11 11 10 9 10 11 10 9 9 8 6 6 7 9 10
30 28 24 29 30 34 35 33 34 28 32 31 30 23 18 18 19 21 21 23 22 26 18 16 22 21 17 18 19 14 17 22 24 27 26 27 25 24 25 22 23 24 30 26 25 26 28 25 22 18 16 18 16 15 14 15 14 14 15 13 14 17 17 16 17 17 17 17 17 17 17 16 16 16 16 15 14 14 14 14 13 13 12 10 10 10 10 11 10 9 7 6 6 5 7 8 10
28 27 28 31 32 31 31 34 32 30 29 28 26 19 19 19 20 24 22 25 24 24 24 20 26 23 21 22 17 16 19 22 24 26 27 26 26 25 25 25 24 23 24 25 27 25 26 26 25 22 18 16 14 14 13 15 15 14 14 15 14 15 16 16 16 17 17 17 16 16 16 16 16 16 15 14 13 13 12 13 13 13 12 11 10 10 10 9 9 7 7 6 6 6 8 9 10
30 24 27 31 31 30 30 30 29 28 28 20 22 28 17 15 18 19 20 21 22 25 30 25 18 24 22 19 20 18 21 22 23 25 25 26 25 27 22 24 24 24 23 25 25 27 26 25 27 25 21 18 15 14 15 15 14 14 14 14 14 15 17 16 16 17 17 16 17 16 15 15 15 15 14 14 13 12 12 12 12 12 12 11 11 10 10 9 8 7 7 6 6 7 9 10 10
31 26 24 31 26 31 31 28 27 28 26 27 25 18 17 16 17 19 19 23 23 27 23 23 26 24 22 26 18 22 25 24 24 25 26 24 24 25 23 23 22 24 23 23 26 27 26 25 25 25 26 23 23 19 16 15 16 15 14 13 14 15 16 16 17 17 16 16 17 17 16 15 15 14 13 13 12 12 11 11 11 12 12 12 11 11 10 10 8 7 7 7 6 6 10 11 11
28 24 28 28 29 28 28 34 24 25 27 25 22 18 15 19 17 16 19 22 23 21 21 24 27 28 29 24 25 28 29 26 27 24 24 24 22 23 23 23 23 22 22 25 26 25 25 26 27 25 22 23 23 20 20 20 14 13 13 13 13 14 15 17 17 16 16 16 16 17 16 15 14 14 13 12 12 11 12 11 10 10 11 12 12 11 10 10 9 8 8 7 5 5 8 10 10
26 27 28 28 30 28 27 28 24 27 26 22 20 12 16 16 16 19 22 23 22 23 24 32 24 28 28 28 28 30 29 27 25 24 24 22 22 22 23 23 24 22 22 22 24 24 24 26 26 26 25 23 20 21 19 19 16 13 13 13 12 15 16 17 17 15 16 15 16 16 15 18 17 16 15 17 12 10 7 11 10 10 10 10 11 11 12 11 9 9 9 8 6 6 8 10 10
23 25 27 29 29 28 25 27 22 30 23 22 17 15 18 19 16 19 15 16 24 20 24 21 26 20 24 26 34 33 31 26 24 25 24 25 25 23 23 23 23 22 21 22 21 22 22 24 23 25 23 23 22 22 21 19 20 15 13 12 13 15 16 17 16 16 15 15 14 13 13 14 14 16 17 17 17 16 12 10 9 9 9 10 10 11 11 11 11 9 8 7 6 7 9 11 11
24 30 28 30 27 29 22 31 22 16 18 20 16 12 14 19 17 18 16 21 22 20 27 19 18 15 18 30 36 35 33 31 27 28 27 27 25 26 25 24 24 24 24 23 21 22 23 21 21 22 22 22 23 22 21 20 19 16 16 18 18 20 17 16 19 18 15 17 12 15 15 12 9 13 12 11 12 19 16 11 10 9 9 9 9 9 10 11 11 10 8 9 7 9 14 19 15
28 28 30 30 27 28 26 19 17 16 19 14 12 12 13 14 14 16 22 23 26 26 26 21 23 22 30 31 32 32 32 29 27 26 27 26 27 25 25 24 23 23 24 23 22 22 21 21 20 22 21 21 20 19 21 20 19 18 18 20 19 14 18 17 16 16 16 16 14 13 10 9 8 10 10 11 11 11 17 12 10 9 9 9 9 9 10 11 10 10 9 9 10 11 21 18 15
28 27 30 31 24 22 13 11 10 13 17 13 13 14 15 12 18 12 21 21 26 27 29 25 26 28 28 30 29 32 30 30 27 27 27 26 26 26 23 23 23 22 23 23 22 20 21 20 19 19 20 19 18 19 18 21 19 19 20 19 18 18 17 16 14 13 13 11 12 10 9 9 9 9 8 8 11 16 17 15 15 13 12 11 10 10 11 10 11 11 11 11 11 13 19 20 18
26 33 32 26 27 31 20 15 14 11 12 14 14 11 16 18 19 16 15 22 26 25 25 27 29 32 32 30 31 32 32 30 28 26 26 25 24 26 25 23 23 23 22 22 21 20 19 19 19 18 19 18 16 18 18 19 18 19 19 17 18 17 16 14 14 13 11 11 11 11 11 10 10 12 14 14 17 14 16 17 18 17 17 17 16 14 16 18 18 18 18 18 18 18 18 18 17
24 30 27 26 16 16 11 14 14 15 10 15 15 15 20 14 17 19 18 25 26 27 24 24 24 28 32 33 34 33 31 30 29 29 27 24 23 23 21 22 20 21 22 22 21 21 19 19 19 20 17 17 16 17 17 19 16 16 16 16 16 16 16 15 14 13 13 12 11 12 12 13 11 10 11 9 9 9 11 15 17 15 12 11 16 13 11 14 17 20 20 21 19 18 15 14 11
34 28 28 30 25 17 15 14 13 12 16 21 19 19 15 16 18 18 19 24 20 23 21 23 27 31 28 27 30 31 30 29 28 28 26 25 24 22 22 22 23 23 21 21 20 20 20 18 18 18 18 18 17 16 18 17 15 15 16 15 16 15 15 14 14 13 13 12 12 13 13 11 11 11 11 9 8 9 8 7 8 10 10 10 10 11 9 9 12 12 11 12 13 14 15 14 13
30 35 24 28 28 22 14 15 13 15 18 18 19 15 18 16 22 17 23 23 18 15 21 19 27 29 29 32 29 29 30 30 28 27 24 23 23 23 22 22 21 20 20 20 21 21 20 18 18 17 19 17 16 17 16 17 14 15 15 14 15 14 15 14 13 12 13 13 12 12 10 10 9 9 9 8 7 7 7 7 7 8 8 8 8 11 10 10 11 11 11 11 12 14 16 15 15
32 37 25 22 30 23 17 17 15 15 18 18 17 20 19 19 21 13 18 21 19 17 20 24 28 27 28 28 29 28 29 28 26 25 22 23 23 21 20 22 20 21 20 19 20 21 20 19 18 19 18 17 17 17 17 16 16 16 16 16 15 12 14 14 13 13 14 14 13 11 10 9 8 7 8 8 8 7 7 7 7 6 6 8 8 9 9 10 10 12 11 14 13 13 13 13 16
34 28 28 23 18 20 22 20 19 18 18 18 22 23 21 21 19 21 20 22 20 17 23 27 31 28 28 28 30 29 28 27 24 25 25 24 23 23 22 22 21 21 22 21 20 20 20 20 19 18 19 20 18 17 17 18 18 17 17 15 17 16 14 14 13 14 12 12 12 10 9 8 7 7 7 7 7 8 8 7 8 7 7 10 10 10 11 13 14 13 12 13 17 14 14 14 14
25 28 29 28 21 21 19 23 23 21 21 17 22 22 24 22 19 26 25 22 18 19 24 25 29 30 29 28 30 29 29 27 27 26 26 24 24 25 22 22 22 21 21 20 21 21 21 20 20 18 18 16 18 18 17 17 17 18 17 17 18 16 15 16 13 12 11 10 10 9 9 8 7 9 7 7 7 7 7 8 9 7 9 13 14 13 13 13 14 14 13 13 14 15 14 13 14
13 20 25 30 23 22 20 22 23 21 26 21 22 24 21 22 19 27 22 18 19 22 25 25 27 30 31 29 30 29 29 28 29 26 27 26 28 28 25 25 23 24 24 22 22 21 22 20 21 20 18 17 17 19 17 19 19 18 17 18 17 15 14 14 14 12 11 11 9 9 8 9 8 7 7 7 7 7 7 7 7 8 8 13 15 14 13 12 12 13 13 13 13 15 16 16 15
24 18 27 27 27 31 25 25 22 21 23 21 23 25 28 27 25 22 18 20 21 23 25 26 27 29 30 31 30 30 30 28 26 27 25 25 25 26 25 23 25 24 23 22 21 21 22 21 22 20 20 18 18 19 21 20 18 18 18 16 17 16 15 11 11 10 9 9 9 9 9 9 8 8 8 6 7 7 7 6 7 7 8 7 7 8 10 11 13 13 13 13 14 14 15 16 18
26 21 24 25 30 34 30 27 24 23 24 19 22 33 29 33 27 23 21 20 23 25 28 28 29 32 30 29 29 27 25 26 25 26 25 26 26 26 26 24 22 22 23 22 20 22 22 21 22 22 22 21 21 21 19 19 18 18 17 16 15 15 14 13 13 13 12 11 11 11 11 10 10 9 9 9 7 6 7 7 7 7 7 8 8 9 11 10 12 12 13 14 12 15 15 16 17
32 23 24 30 29 35 30 36 28 28 24 22 23 30 29 30 31 24 20 20 25 28 28 29 29 28 29 29 26 27 26 25 25 25 22 22 22 24 25 23 21 20 21 20 22 23 20 22 22 23 23 22 20 19 18 19 18 17 16 17 15 13 14 14 15 16 13 12 12 12 12 11 10 10 9 9 8 8 8 8 8 7 8 8 9 8 10 11 12 12 13 14 14 15 16 16 18
28 32 35 30 31 24 29 33 32 34 29 26 25 32 33 30 31 25 22 21 24 26 26 28 29 29 32 29 29 30 27 25 24 25 23 21 20 24 25 24 22 22 22 21 22 22 22 21 21 21 22 21 20 20 19 19 18 16 15 12 14 13 13 14 14 14 14 13 12 12 12 11 10 10 9 9 9 8 8 7 7 8 7 9 9 9 11 12 11 13 12 13 16 16 16 18 17
33 34 25 32 30 28 26 32 29 32 30 28 31 32 32 21 23 22 19 21 23 26 25 28 26 26 29 27 27 25 27 25 24 24 23 23 23 24 26 25 23 21 21 23 23 23 22 22 21 22 21 20 19 18 17 15 17 16 15 15 15 14 14 14 14 13 13 12 11 12 12 11 10 9 8 7 6 7 7 6 7 8 8 8 9 9 11 11 12 13 14 13 14 17 17 17 18
34 33 31 27 31 31 26 27 28 30 30 31 33 36 24 22 24 22 19 22 23 32 26 30 29 30 25 20 19 21 17 22 22 23 21 20 23 22 24 22 22 21 21 21 22 24 22 21 20 20 20 19 18 18 17 17 16 16 15 16 14 15 14 15 14 14 13 12 11 11 11 10 8 9 8 7 7 7 7 7 7 7 8 8 9 10 10 11 11 12 14 13 14 16 17 16 17
30 30 31 30 31 31 25 33 31 32 33 29 31 34 32 21 22 26 27 29 29 33 25 23 25 25 24 21 21 20 19 19 19 17 17 19 19 21 21 21 20 19 18 19 20 20 21 19 18 18 18 17 17 17 15 14 14 14 15 15 15 15 15 13 14 13 13 12 11 10 11 9 8 8 8 6 6 7 7 8 8 8 9 10 11 11 12 11 11 12 14 15 14 15 17 16 18
27 29 31 28 30 36 36 23 28 34 35 34 30 37 37 21 21 33 28 30 32 27 26 24 23 20 21 21 17 18 20 21 16 18 15 16 19 21 21 23 20 19 18 19 19 18 18 18 18 19 16 16 16 15 17 16 16 16 17 16 16 15 14 14 13 14 13 13 12 11 10 9 10 8 8 7 7 9 9 9 9 9 10 11 11 13 13 13 12 13 13 14 15 15 15 17 16
27 27 29 34 27 26 29 20 25 33 33 32 28 30 34 24 26 30 30 31 27 31 28 27 30 25 23 20 20 18 22 18 18 19 20 18 17 21 18 17 18 15 19 20 21 18 18 19 18 17 15 17 17 16 16 17 17 16 16 16 17 17 20 16 15 14 13 14 13 12 12 10 10 10 10 9 9 8 9 9 10 10 11 11 12 13 12 13 13 13 15 14 15 16 16 15 15
24 26 29 33 28 29 30 23 23 29 30 30 28 28 33 27 28 33 31 26 22 23 26 27 24 27 28 29 21 19 18 16 16 17 18 17 19 20 17 16 20 20 16 18 16 13 17 17 17 17 15 16 15 15 16 16 16 17 17 16 16 16 16 15 18 15 15 15 14 13 13 13 12 12 11 10 10 10 10 10 11 11 11 12 11 12 13 13 13 14 14 16 14 16 17 15 15
27 26 28 30 32 27 27 23 23 26 30 27 29 29 30 27 32 33 27 23 19 20 24 28 29 25 32 30 27 23 21 19 18 20 19 20 22 23 20 15 14 18 15 16 16 15 18 19 16 17 18 17 16 16 17 16 16 19 20 17 15 19 17 16 16 15 15 14 14 13 14 14 13 13 13 13 13 13 13 13 13 13 13 13 13 13 13 13 13 14 14 16 16 14 15 14 14
26 26 28 33 27 32 32 28 24 25 33 25 29 28 25 38 35 27 23 23 18 17 19 22 26 30 26 36 33 29 25 27 26 27 23 23 23 21 20 19 22 14 14 13 15 16 17 17 16 18 18 18 17 18 14 18 16 14 13 14 14 15 18 16 15 14 14 13 14 14 14 12 12 12 13 13 12 14 14 15 15 14 14 13 14 15 14 14 13 14 14 15 16 18 15 14 12
28 28 26 30 27 31 22 29 27 21 27 28 26 31 30 24 26 25 19 19 19 18 19 23 22 23 20 17 24 33 34 28 27 27 24 23 22 21 21 21 18 18 15 16 16 15 15 16 17 18 19 17 16 16 17 17 18 17 18 17 15 16 15 14 14 14 12 10 12 13 13 12 13 13 12 12 13 11 11 12 13 13 14 14 15 15 16 16 15 14 14 15 15 16 18 16 15
31 27 25 22 22 26 24 26 30 28 30 35 25 35 37 28 26 25 23 22 23 22 22 22 25 25 23 21 22 20 19 22 25 27 27 25 24 22 22 22 20 18 16 17 16 19 18 19 18 17 16 17 17 18 16 15 15 15 16 15 16 15 15 13 14 13 12 12 14 13 12 14 14 13 12 13 13 13 12 13 13 14 14 14 15 15 15 16 15 16 16 15 15 14 16 18 18
29 32 25 21 23 26 23 25 30 30 33 33 29 32 31 32 33 30 27 25 26 29 23 25 25 27 27 24 24 23 22 23 23 23 23 24 22 23 22 22 20 18 15 16 17 17 17 17 18 19 16 17 18 17 18 16 15 15 13 12 12 12 13 14 12 11 12 11 11 12 14 13 14 14 13 13 13 13 13 14 13 13 14 14 13 14 15 16 17 18 18 17 17 17 15 18 17
33 20 29 21 21 25 26 26 27 24 21 27 35 37 31 32 34 38 29 26 28 31 30 29 28 26 28 27 26 23 24 23 25 25 24 23 23 24 25 25 22 20 18 18 17 16 17 17 16 17 16 17 15 15 14 14 13 15 16 16 16 15 16 14 11 10 10 10 12 12 12 13 13 13 14 14 14 14 14 15 15 16 15 15 16 16 17 17 18 18 19 19 19 18 17 18 19
26 22 27 23 20 20 25 27 28 27 29 30 36 33 39 31 29 36 35 31 30 32 33 31 30 28 28 29 28 26 25 24 25 26 26 25 25 24 26 26 22 20 17 19 18 16 17 17 18 19 19 18 17 17 17 17 17 17 15 14 13 13 12 13 10 11 11 11 12 12 12 12 13 13 14 14 14 14 14 15 14 15 16 15 15 16 16 17 17 18 19 20 19 20 20 19 19
26 20 26 26 19 17 19 25 28 29 31 29 29 33 39 31 27 35 34 32 34 36 34 32 31 30 30 30 27 28 25 24 25 24 24 24 26 26 26 27 23 22 19 16 17 18 19 18 19 19 19 18 18 18 20 18 17 16 15 12 11 11 9 11 10 11 11 12 13 12 12 11 12 12 13 14 14 16 15 16 16 15 15 15 16 16 16 17 17 17 18 18 19 20 20 20 22
19 21 25 28 25 21 20 23 26 29 34 33 26 31 32 34 32 35 37 40 33 31 34 32 34 31 30 29 27 27 26 25 25 25 25 26 28 28 28 30 27 25 21 16 17 18 19 19 19 20 18 18 17 18 17 16 14 13 12 11 11 10 10 10 10 11 11 11 11 11 12 12 11 12 12 13 15 15 14 15 15 15 14 16 17 17 17 18 18 18 18 17 18 19 19 21 22
22 30 29 28 27 22 23 24 23 32 34 29 32 30 32 36 33 32 33 30 33 32 30 33 33 32 32 28 29 27 26 27 30 30 27 29 28 28 30 30 27 27 25 23 19 19 19 19 20 21 18 17 18 17 16 14 13 14 13 12 12 13 11 12 12 12 11 11 11 11 11 10 10 12 13 13 14 15 14 15 16 15 15 16 18 18 17 18 19 19 18 17 17 18 19 19 19
29 28 31 30 31 30 32 30 33 36 33 23 32 32 33 38 20 29 34 32 33 31 30 32 32 31 30 30 28 27 28 31 33 32 30 28 29 30 30 30 27 26 24 24 24 21 20 18 18 21 19 17 16 15 16 14 13 14 14 13 13 14 13 12 12 11 10 11 12 11 10 11 11 12 13 13 14 14 15 15 16 16 16 17 18 18 18 19 19 18 18 17 17 18 19 20 20
34 37 38 37 36 34 29 34 31 29 25 21 28 35 39 21 28 25 30 30 30 31 28 30 32 31 31 33 29 28 29 30 32 31 29 28 30 29 30 31 28 27 24 24 22 22 20 19 18 21 20 15 14 15 15 15 15 14 14 14 13 13 13 13 13 12 12 12 12 11 12 11 12 12 13 14 15 15 15 14 15 16 16 17 17 17 18 18 19 19 17 18 18 19 20 19 19
37 29 35 32 31 38 29 34 35 30 28 30 21 39 40 29 22 26 25 27 27 29 29 29 30 27 25 27 27 29 28 27 29 29 29 31 33 30 29 31 30 27 25 24 24 23 22 20 18 18 18 16 15 15 15 16 16 16 15 14 14 13 14 14 14 13 12 12 13 12 13 12 12 13 14 14 15 15 15 15 16 17 18 19 19 19 20 19 20 19 18 18 20 19 20 21 20
34 33 28 34 34 22 29 19 22 27 28 26 30 27 18 20 18 20 23 24 26 28 28 29 30 26 26 27 27 28 30 27 28 28 29 26 28 28 29 29 28 28 26 25 24 23 21 21 18 17 18 17 17 16 16 16 16 16 16 15 14 13 13 14 14 14 13 13 13 13 13 13 13 13 14 14 15 15 16 16 16 17 17 18 18 19 19 19 19 19 18 19 19 20 21 20 20
37 36 41 35 26 23 17 8 12 8 19 28 20 29 21 23 19 18 25 26 27 28 29 30 29 28 28 29 27 28 29 30 29 32 32 31 30 28 26 27 27 26 26 25 23 22 22 21 20 18 18 17 16 16 16 15 16 16 16 16 15 15 15 15 15 14 14 14 13 13 14 14 13 14 14 14 15 16 17 16 16 17 17 17 17 18 18 18 19 17 19 18 19 20 20 19 19
33 41 34 24 26 26 26 23 16 21 30 26 28 31 29 29 32 25 25 26 26 29 28 29 28 30 32 30 29 30 29 29 30 32 33 32 31 29 27 27 27 27 26 25 24 21 21 21 19 18 17 17 16 16 16 16 16 16 16 15 16 16 16 16 15 14 14 14 14 15 14 15 15 15 15 15 15 16 16 16 16 16 16 16 17 17 19 18 19 18 18 18 19 19 19 19 19
28 32 22 39 35 34 30 27 28 30 30 29 32 30 33 33 28 32 28 30 27 28 29 30 31 32 32 31 30 29 29 30 32 32 31 30 30 30 29 29 29 27 24 25 25 24 22 19 18 18 18 17 16 16 15 16 15 16 16 16 16 16 16 17 17 17 16 16 16 16 16 15 15 15 16 16 16 17 17 16 15 16 16 18 18 18 18 19 19 19 18 19 19 20 20 20 19
28 22 34 30 26 31 29 29 19 30 24 20 29 32 34 34 29 32 31 30 31 31 30 33 35 34 33 30 31 32 32 31 31 33 32 32 30 29 30 31 29 28 27 26 25 23 23 21 19 18 18 17 17 17 16 16 16 16 17 17 16 17 17 17 16 15 16 16 15 15 16 15 15 15 17 17 17 17 16 16 16 17 17 17 18 18 19 18 19 19 19 19 20 20 21 20 20
37 32 36 36 34 22 28 27 32 28 28 26 23 30 31 26 26 32 32 32 31 32 34 33 34 32 30 29 31 32 31 32 33 33 31 32 31 29 28 28 29 27 25 24 24 23 22 22 20 19 18 18 18 18 18 18 19 18 17 17 17 17 16 17 16 15 16 16 15 15 15 14 16 17 17 17 17 16 16 16 17 18 19 19 19 19 19 18 19 20 20 19 19 21 21 21 21
32 32 31 31 33 30 33 32 33 35 32 29 27 28 21 20 27 26 31 30 32 32 34 32 32 33 31 29 28 30 30 29 32 32 32 32 31 30 29 31 29 29 28 26 26 25 22 21 21 21 20 20 19 20 19 19 18 19 17 17 17 16 16 16 15 15 16 17 16 16 14 15 16 17 16 17 17 16 16 17 18 19 19 20 20 20 20 19 20 20 20 19 20 21 21 21 21
Wind_Speed
12 10 7 8 8 9 10 8 10 6 8 11 12 12 12 14 8 9 11 6 8 8 3 3 2 5 7 9 8 10 5 3 5 6 2 6 6 11 11 14 18 18 16 15 14 14 15 17 17 18 18 18 17 16 15 15 14 13 13 12 11 11 10 9 9 9 9 10 10 11 12 12 12 12 12 12 12 12 13 13 13 13 13 13 13 13 13 12 12 12 13 13 12 12 11 11 11
9 6 7 7 8 7 7 3 7 10 11 13 13 13 12 16 14 12 10 13 5 8 6 6 5 3 4 3 6 4 13 11 9 10 8 8 12 10 11 18 16 17 16 14 14 13 14 15 17 17 18 18 17 17 16 15 15 14 13 13 12 11 10 9 9 9 10 10 11 12 12 13 13 13 13 13 12 13 12 12 13 13 13 13 13 13 12 12 11 12 12 12 11 10 10 11 10
9 7 8 7 8 8 9 9 12 11 12 14 12 13 12 15 13 13 12 3 9 5 5 3 5 5 7 6 10 10 6 10 11 11 8 11 13 10 13 17 17 16 16 13 13 13 12 14 15 16 18 18 18 17 16 16 15 15 14 13 12 11 10 9 8 10 10 11 11 12 13 13 13 13 13 13 13 13 12 11 12 13 12 12 12 12 11 11 11 10 10 10 9 9 8 8 7
10 8 8 6 8 7 8 7 11 12 14 13 13 12 12 11 18 5 11 8 3 3 1 4 6 8 8 7 6 8 10 4 3 10 8 9 9 12 14 16 16 14 14 12 13 13 12 15 15 17 18 18 17 17 16 16 15 14 14 14 13 12 10 10 10 11 11 12 12 12 13 14 14 14 14 13 13 12 12 11 11 11 11 11 10 10 10 10 9 9 8 8 7 7 7 6 5
9 7 6 8 7 9 9 9 12 11 14 11 13 12 16 15 9 6 5 5 3 6 2 5 7 6 6 3 1 3 6 7 5 7 8 9 13 13 16 16 14 14 14 15 13 13 14 19 16 16 17 17 16 17 16 16 15 14 14 13 13 12 11 11 11 12 12 12 13 13 14 14 14 14 14 14 13 13 12 12 12 11 11 12 11 10 10 9 8 7 7 7 8 6 5 3 3
8 8 6 7 8 5 7 11 12 14 13 13 14 12 15 7 9 2 1 2 5 3 7 7 7 3 5 3 9 7 6 5 8 6 9 10 15 16 17 13 14 14 15 14 13 12 14 18 17 15 16 17 16 16 15 15 14 14 14 13 13 13 11 11 12 12 12 13 13 13 14 14 14 14 14 13 12 11 11 11 11 11 10 10 10 9 9 8 7 6 6 6 6 4 3 4 3
7 6 7 7 9 8 12 14 16 16 15 16 15 17 21 4 4 3 4 6 5 7 2 8 7 1 8 7 9 8 7 9 6 8 7 14 16 17 17 14 13 15 15 13 12 13 18 17 16 15 16 17 17 16 15 14 14 13 13 14 13 13 12 12 12 13 13 14 13 13 13 13 13 13 13 13 12 12 12 11 10 9 9 8 8 8 7 6 5 7 6 5 3 3 3 3 4
8 9 6 9 8 9 13 15 17 15 15 18 17 20 20 6 3 3 4 5 5 6 8 7 7 5 4 6 3 5 4 7 13 12 15 16 17 16 15 14 14 15 15 15 14 13 18 16 16 16 17 16 16 15 15 14 14 13 13 14 14 12 12 13 12 13 13 13 13 13 13 13 13 13 13 13 13 12 11 11 11 10 10 9 9 8 7 6 5 5 4 2 2 2 4 4 5
8 8 8 10 12 10 13 15 15 17 18 19 20 18 14 6 3 4 7 7 11 7 4 5 7 8 6 7 7 6 5 6 13 13 15 17 17 16 12 14 14 14 15 15 15 14 15 16 16 16 16 16 16 16 14 14 14 13 13 13 13 12 12 12 14 13 13 13 12 12 13 12 12 12 12 12 12 11 10 10 9 9 8 8 7 7 7 6 5 3 3 1 2 2 2 4 5
8 8 10 8 9 15 15 15 15 14 18 19 20 19 15 13 11 9 10 14 13 11 10 8 8 10 2 8 7 6 7 14 14 14 14 16 16 15 13 14 15 16 15 16 15 13 13 18 15 14 14 14 15 14 14 12 12 11 12 13 12 12 12 13 13 13 12 13 13 12 12 11 11 11 12 11 11 10 10 9 8 8 8 7 7 6 6 6 5 4 2 2 1 2 3 4 5
9 9 9 10 12 14 15 15 16 14 18 16 18 14 10 4 5 9 11 12 12 14 10 7 11 10 7 7 6 4 10 13 14 15 15 17 15 14 15 13 14 15 18 16 15 14 14 14 18 14 13 14 12 11 12 12 11 11 12 11 12 14 14 13 13 13 13 13 12 12 12 11 11 11 11 11 10 11 9 9 9 8 7 7 7 7 7 6 5 4 2 2 2 1 3 3 5
10 10 9 12 13 13 14 15 17 15 16 16 13 8 8 9 9 12 12 13 12 14 13 9 8 9 10 9 5 5 10 13 13 14 16 16 14 15 14 13 14 14 15 15 16 14 14 15 14 15 15 13 10 10 11 12 12 11 12 12 12 12 13 13 13 12 13 13 12 12 11 11 11 11 11 10 10 9 9 9 8 8 7 7 7 7 7 5 4 2 2 2 2 1 3 4 4
11 9 11 11 12 13 14 15 13 15 14 9 8 12 8 7 9 10 11 12 12 14 14 12 10 9 8 8 8 9 11 13 14 16 15 14 14 14 13 13 13 15 14 16 15 16 16 14 13 13 14 14 12 11 12 12 12 11 12 11 12 13 13 13 13 13 13 13 12 11 11 10 10 10 10 10 9 9 9 9 8 8 8 8 7 7 6 6 3 2 2 1 1 1 3 4 4
11 9 9 12 11 14 14 13 12 13 11 7 12 3 8 6 9 9 9 13 13 14 11 11 12 11 8 11 8 9 11 14 15 16 14 14 13 13 14 12 14 14 15 14 14 15 15 14 12 13 14 13 12 12 13 12 13 12 11 11 11 12 13 13 13 12 12 12 12 11 10 10 10 10 10 9 9 9 8 8 8 8 8 8 8 7 7 6 4 3 2 1 0 2 3 5 4
11 9 9 10 11 12 13 13 11 11 9 13 7 9 7 6 8 7 10 11 12 10 10 10 12 11 8 11 9 11 13 15 16 15 14 14 14 13 14 13 13 13 13 15 15 15 15 14 14 12 13 13 13 10 10 11 12 11 11 11 11 12 12 14 13 12 12 12 11 11 11 11 11 10 10 10 9 8 9 7 8 8 8 8 8 7 7 6 5 4 3 2 1 2 4 5 5
10 9 9 10 12 13 10 12 13 14 9 5 10 5 4 7 8 10 10 12 9 8 12 11 12 7 11 10 12 14 17 17 15 14 13 14 13 13 13 13 13 12 11 13 13 13 13 15 14 12 12 12 11 10 10 11 10 10 10 9 10 12 12 13 13 12 13 12 11 10 10 9 10 9 10 10 10 7 5 7 7 7 7 7 8 7 7 6 5 5 4 3 3 4 6 6 6
8 9 10 10 13 13 10 11 10 10 7 10 8 7 8 9 7 8 8 5 13 10 12 8 11 9 14 12 16 20 18 16 14 15 14 12 11 11 11 11 11 11 9 12 12 11 13 14 14 12 13 14 13 12 10 9 10 11 9 9 10 12 13 13 13 13 12 12 10 10 9 6 6 7 7 7 12 8 10 8 6 6 6 7 7 7 6 6 6 5 4 3 4 5 7 7 7
9 11 10 13 11 14 10 15 9 7 7 10 7 4 6 8 8 8 6 10 12 5 9 8 7 6 8 13 22 21 19 19 17 17 15 12 11 11 10 11 11 11 11 10 11 12 12 12 12 12 11 13 13 10 9 8 8 9 9 10 9 12 12 13 12 10 10 9 10 8 7 4 3 5 5 7 5 9 8 8 6 5 5 6 6 6 7 6 5 5 5 4 5 6 9 7 7
10 10 11 12 12 11 14 8 8 4 9 6 4 3 5 6 4 5 9 10 13 12 12 12 11 13 17 20 18 21 21 19 18 16 18 17 14 14 12 11 12 12 12 11 10 12 11 10 11 12 12 12 12 11 9 9 10 8 10 10 8 10 11 10 8 8 8 8 7 5 4 1 2 3 2 2 4 8 10 9 8 7 6 6 6 6 6 6 6 6 7 7 7 9 7 7 6
13 11 12 13 12 9 5 1 2 5 9 4 4 6 6 3 7 3 9 9 13 14 11 12 11 13 13 16 18 19 20 19 17 17 18 17 15 15 13 13 12 12 12 11 11 10 10 10 11 11 12 11 9 9 8 9 9 9 8 9 8 8 8 7 7 6 6 4 4 3 1 3 3 3 4 4 8 7 8 11 12 10 9 8 8 7 7 7 7 8 7 8 7 6 7 7 7
11 13 12 11 14 17 10 5 6 3 3 6 6 2 5 9 10 7 7 11 13 12 13 14 13 17 15 15 18 18 19 19 18 17 17 16 16 14 13 12 11 11 10 11 10 10 11 11 10 10 10 9 9 8 8 8 8 8 8 7 8 7 6 6 5 5 4 5 5 3 3 3 4 4 5 5 6 6 6 6 7 7 7 8 12 6 7 7 8 6 6 7 7 7 8 8 8
9 15 15 15 6 7 2 6 6 7 3 7 7 7 10 3 4 8 9 11 9 10 13 14 14 15 16 17 17 18 19 19 18 19 17 16 15 14 12 12 12 11 11 10 11 11 11 11 11 10 9 9 8 7 8 9 7 7 7 7 7 7 7 7 6 6 5 4 4 4 3 5 4 3 5 4 4 3 5 6 7 6 5 5 8 5 4 6 7 7 9 9 8 8 7 6 5
13 14 16 17 14 6 8 5 5 5 7 11 10 10 7 6 8 10 10 12 9 11 11 13 17 16 16 15 17 18 20 19 18 18 17 16 15 14 12 11 12 11 10 10 10 10 10 10 10 10 9 9 9 8 7 7 7 6 7 7 7 6 5 5 5 5 5 5 5 4 5 4 4 4 3 3 2 3 2 2 2 3 3 4 4 4 3 3 4 5 4 5 6 6 7 6 5
14 13 14 16 17 12 5 5 5 7 10 9 9 4 8 8 12 8 13 11 9 7 10 11 16 18 19 18 18 19 19 20 18 17 16 14 15 14 12 12 11 10 9 10 10 10 10 11 10 10 10 9 9 9 8 7 6 6 5 6 7 7 6 6 5 4 5 5 5 5 4 4 3 2 3 2 2 1 1 0 1 2 1 2 1 4 3 3 3 4 5 5 5 6 7 7 6
16 16 15 12 18 13 8 8 6 8 9 9 8 11 10 11 10 6 9 12 11 7 3 15 14 15 16 18 19 18 18 18 17 16 14 13 13 12 12 11 12 11 11 11 10 11 11 10 11 11 10 10 8 9 8 7 7 7 7 7 6 6 6 6 5 5 6 6 6 5 4 3 3 2 2 2 2 2 1 1 2 1 2 2 0 2 3 3 4 5 5 5 6 6 5 5 6
17 17 16 14 9 11 12 11 10 9 6 8 12 13 12 11 11 12 9 13 10 8 10 10 15 15 16 18 20 19 18 18 16 15 14 13 13 15 14 12 11 12 12 12 11 11 11 11 11 11 11 10 9 9 8 8 8 8 8 7 7 8 6 5 7 6 5 5 4 4 3 2 1 1 1 1 1 1 2 2 2 2 2 1 2 3 2 2 5 6 5 6 7 6 6 6 6
13 17 17 17 12 11 10 13 14 12 11 9 12 13 13 13 9 10 14 13 10 10 14 14 18 18 19 17 18 18 18 18 18 15 15 14 14 14 13 13 13 12 13 12 11 11 10 11 11 11 10 10 9 9 8 8 8 9 8 8 8 7 7 7 5 4 4 3 3 2 1 1 1 2 0 1 1 2 1 2 3 2 2 1 1 2 3 3 5 6 5 5 6 6 5 5 5
3 8 15 19 14 12 12 12 14 10 12 12 12 14 12 13 9 12 10 9 10 13 15 16 17 16 17 19 19 18 17 16 16 16 17 17 14 14 14 13 14 14 14 12 11 11 12 12 12 12 10 9 9 10 9 9 9 8 9 8 8 7 7 6 5 5 4 4 3 3 2 2 3 1 1 1 1 1 2 2 2 2 2 5 6 6 6 5 5 5 6 5 5 6 7 7 7
14 10 12 16 17 14 15 14 12 11 10 12 12 14 16 15 13 13 6 10 10 13 15 16 16 16 17 18 16 17 16 14 14 14 15 14 14 13 15 12 13 12 10 12 11 12 13 12 12 12 11 10 10 11 10 10 8 8 8 7 7 7 7 4 3 3 1 3 3 4 3 3 2 1 1 1 1 1 1 1 2 2 3 2 2 2 4 4 5 5 5 5 6 6 7 7 8
15 11 11 13 15 16 18 15 14 13 11 10 12 13 13 18 16 13 12 10 13 14 15 16 14 14 14 14 13 9 6 12 12 13 14 13 14 14 14 13 13 10 10 10 12 12 11 10 9 9 11 11 11 10 9 9 9 8 8 6 6 7 5 4 4 2 3 4 5 5 5 4 3 3 3 3 1 1 1 2 1 2 1 1 2 3 4 4 4 5 5 5 6 6 7 6 7
13 11 10 11 12 14 18 17 17 17 12 13 12 12 12 16 20 13 12 12 13 16 15 14 14 14 11 11 5 10 14 12 15 15 14 14 13 13 15 14 13 12 10 11 12 13 12 11 9 9 11 12 11 10 9 9 9 8 5 7 7 5 6 6 6 6 5 5 5 5 5 4 4 3 3 3 2 2 2 1 2 1 0 2 3 2 3 4 4 5 4 5 5 6 7 7 7
11 11 14 12 13 10 16 20 20 18 14 16 14 13 13 17 18 15 11 8 9 13 13 14 11 9 10 11 13 11 10 12 11 12 13 12 11 13 14 14 13 13 13 12 12 12 12 12 11 11 12 12 10 10 9 8 8 7 6 5 6 6 5 6 6 6 6 5 4 5 5 5 4 4 3 3 2 2 2 1 1 0 1 2 2 2 4 4 4 4 5 6 6 7 7 7 6
13 15 12 14 13 12 12 20 18 21 14 17 17 11 15 5 12 12 10 10 10 2 11 18 17 3 9 7 5 1 8 3 9 10 11 11 9 10 11 12 12 13 13 13 13 12 12 13 12 12 12 11 9 8 6 6 6 7 6 6 6 6 5 6 6 5 5 5 4 4 5 4 4 3 2 2 1 2 1 1 1 1 1 2 2 3 4 4 4 4 5 6 6 7 8 8 8
13 14 12 13 15 15 8 14 16 18 18 15 19 15 13 10 10 10 7 11 14 15 12 13 12 13 12 7 3 6 6 2 5 2 7 7 8 9 11 11 12 13 12 12 12 11 11 10 7 8 8 8 5 4 6 4 5 4 6 4 6 6 6 6 6 6 5 5 4 4 4 4 2 2 1 1 1 2 2 1 1 0 1 2 3 4 4 4 4 5 6 6 6 7 7 8 8
13 13 14 13 15 18 13 13 16 19 20 16 18 18 19 10 12 13 16 11 7 9 9 14 14 9 6 7 4 2 9 10 6 3 4 8 9 8 8 7 8 9 8 10 10 8 8 5 6 6 6 6 4 4 4 4 4 3 5 4 6 5 6 5 6 5 5 5 4 4 4 3 2 2 1 0 1 1 1 1 1 1 2 2 3 4 4 4 4 5 6 7 6 6 7 7 7
15 16 15 14 13 16 16 11 15 20 20 18 17 17 21 12 10 20 16 16 13 8 7 9 12 11 11 10 4 8 9 9 9 11 8 8 9 11 11 10 10 5 5 6 7 6 6 6 3 3 5 4 5 3 5 6 6 5 4 4 2 4 2 5 5 6 5 5 5 4 4 2 1 1 2 2 2 3 2 2 3 3 3 3 4 5 5 5 6 7 7 7 8 7 7 7 7
16 15 15 17 13 13 17 11 14 19 17 18 15 17 19 14 15 14 16 14 16 18 15 12 10 14 13 10 8 7 8 9 11 11 10 10 9 10 11 6 1 6 8 7 7 7 6 1 5 5 5 5 4 6 5 5 4 4 3 1 6 8 9 5 5 6 6 6 6 5 5 3 3 3 4 3 3 2 2 3 3 3 3 4 4 5 6 6 6 6 6 6 7 7 6 6 6
10 13 16 15 13 12 16 11 12 14 14 15 17 15 19 15 17 17 14 12 11 13 14 13 13 10 12 19 10 1 2 4 8 8 10 11 10 13 8 7 7 8 6 7 4 5 1 2 4 4 3 5 6 4 4 2 3 3 4 3 5 5 2 5 8 5 7 7 6 6 6 5 4 5 4 4 4 4 4 3 3 4 5 4 4 5 6 5 6 6 5 6 4 6 6 6 6
15 10 13 14 14 14 15 12 13 13 15 11 17 15 15 16 19 15 13 11 9 9 11 15 16 15 10 16 18 14 7 4 7 9 10 11 14 13 9 8 8 7 8 7 8 6 7 3 6 5 4 4 5 3 4 5 4 3 6 6 5 6 7 7 7 7 7 6 6 6 6 5 5 5 6 6 5 6 6 6 5 6 6 6 6 6 6 6 5 5 6 5 6 5 5 5 6
11 11 11 14 13 15 13 14 14 13 11 11 16 15 6 21 16 12 9 9 9 7 9 12 13 17 16 12 17 12 13 14 13 13 13 13 14 10 8 7 8 8 8 8 5 4 3 3 4 4 4 3 1 5 4 4 3 2 4 7 5 7 7 7 7 7 7 6 6 6 6 6 6 5 6 6 5 6 7 6 6 6 6 6 6 6 6 7 6 6 6 6 6 7 5 5 5
14 15 12 13 15 16 9 11 11 11 15 16 14 14 11 9 13 11 9 8 9 9 11 12 11 10 10 10 14 21 21 18 14 15 14 13 13 11 9 7 7 6 7 8 6 4 2 1 1 4 3 0 5 3 2 1 2 3 5 7 7 7 7 6 6 6 5 5 5 6 6 6 6 6 5 6 6 5 5 5 6 6 6 7 6 7 7 7 8 7 7 7 7 6 8 7 6
14 17 14 12 13 15 12 15 16 10 11 17 14 11 14 13 10 10 10 9 9 9 11 12 13 13 9 7 7 9 12 12 13 13 13 13 12 13 11 10 8 8 7 8 7 6 4 4 2 4 6 2 3 1 2 0 4 6 7 6 6 6 6 5 6 6 5 5 6 6 6 6 6 6 5 6 6 6 6 6 6 7 7 7 6 6 6 7 8 9 8 7 8 7 7 8 8
13 13 15 12 12 15 14 11 15 12 12 15 15 13 9 13 13 9 10 12 14 10 11 12 14 13 11 8 8 9 11 13 13 13 13 14 13 13 12 10 10 9 9 9 9 8 7 4 4 3 4 5 2 3 6 6 6 4 4 4 5 5 5 6 5 5 5 5 4 6 7 6 7 7 7 6 6 6 6 6 7 6 7 6 6 6 6 7 8 9 9 9 9 8 8 8 9
12 10 18 12 12 14 14 13 13 9 10 14 19 13 11 12 15 20 14 14 16 13 11 12 12 14 16 12 10 10 11 13 14 15 14 13 13 12 12 11 11 11 11 10 9 8 9 7 6 5 4 2 2 5 4 7 5 4 7 8 6 7 8 7 5 4 5 5 5 6 5 6 6 6 7 7 7 7 7 7 8 8 7 7 7 7 8 8 8 9 10 10 9 9 9 8 9
10 11 15 13 11 10 14 13 12 11 11 12 16 19 13 11 11 23 21 16 17 16 14 14 15 15 15 15 12 12 12 14 13 14 14 15 14 14 13 12 12 13 10 11 10 9 5 4 5 4 2 2 6 5 4 4 4 5 5 5 6 6 6 5 4 4 4 5 6 6 6 5 6 7 7 7 7 7 6 6 7 7 7 6 6 7 7 8 9 9 10 9 9 9 9 9 9
15 9 15 13 9 8 9 10 13 12 12 13 15 16 13 12 9 12 18 17 19 19 19 17 16 15 15 15 14 13 13 13 15 13 14 14 14 14 13 13 13 11 10 10 11 10 8 4 5 7 5 2 1 5 6 7 7 7 6 6 6 5 4 5 5 5 5 6 6 5 6 5 5 5 6 7 7 8 7 8 7 7 6 7 7 8 8 9 8 8 9 9 9 10 9 9 10
10 8 12 14 12 8 5 8 9 10 13 14 14 17 14 11 13 15 14 14 14 15 17 16 16 15 15 16 17 15 13 12 13 14 14 14 14 15 15 15 15 13 11 10 10 9 8 4 7 6 7 5 4 6 7 7 6 6 6 5 6 5 6 5 5 5 5 5 5 5 5 5 5 5 5 5 6 7 6 6 7 7 6 7 7 8 8 8 8 8 9 9 8 9 8 10 10
11 10 12 12 12 9 8 9 9 10 12 14 15 15 19 15 10 12 14 17 19 17 18 20 20 19 16 15 15 15 15 15 17 17 17 18 17 16 15 15 14 14 15 12 10 10 10 4 6 5 6 6 5 7 8 7 6 6 5 6 7 7 6 5 6 6 5 5 5 5 4 4 4 5 5 5 6 7 6 6 7 7 6 7 7 6 7 7 7 7 7 7 8 9 9 9 9
13 11 13 13 11 8 10 10 11 13 12 9 16 19 15 17 9 13 18 17 19 17 15 17 19 19 17 12 12 15 16 19 18 18 17 16 16 16 16 17 15 14 14 15 14 12 11 9 7 8 8 7 6 8 8 6 7 6 6 7 6 7 7 6 6 6 4 5 5 5 4 4 4 4 5 5 6 7 6 6 6 7 6 7 7 8 8 9 9 7 7 8 8 9 9 10 9
15 14 14 14 12 12 11 13 9 11 9 11 13 20 15 10 12 14 17 17 17 18 16 17 17 15 16 20 17 15 16 18 18 18 16 16 15 14 16 16 16 15 15 13 13 12 11 10 9 9 8 7 7 7 7 7 7 7 7 7 6 6 7 6 6 5 5 5 5 5 5 5 5 5 5 6 6 6 6 6 6 7 7 7 7 8 8 7 8 7 8 8 9 8 9 10 10
15 14 14 12 11 10 10 11 13 12 10 14 10 12 12 15 6 13 15 16 16 16 15 15 14 15 16 15 15 16 16 16 16 16 16 16 14 16 16 17 17 16 16 14 13 13 13 11 10 10 9 7 8 8 7 8 7 7 7 6 7 6 6 6 6 5 5 6 6 6 6 5 5 5 5 5 6 6 6 6 6 6 7 7 7 7 6 7 7 6 6 7 7 7 8 8 8
14 13 13 14 14 8 11 5 8 11 11 10 11 8 5 5 7 7 10 13 14 16 17 17 16 14 15 15 15 15 14 15 15 17 16 16 16 16 14 15 16 15 16 14 14 13 12 11 11 10 9 9 8 9 8 7 7 7 8 8 8 7 6 6 6 6 6 6 6 6 6 6 5 5 5 5 6 6 6 6 6 7 6 6 7 7 7 7 7 7 7 7 8 7 8 10 8
15 14 16 15 13 10 5 2 2 4 4 9 6 10 6 8 5 6 15 14 16 17 17 18 18 17 16 13 15 17 16 17 17 18 19 19 16 12 13 15 15 14 13 14 14 13 14 13 12 11 10 9 9 9 8 8 8 8 8 8 8 8 8 8 7 8 7 7 6 6 6 6 6 5 4 4 5 5 5 6 5 6 7 7 7 7 7 7 7 6 7 7 8 9 9 9 8
11 15 15 12 13 13 9 6 5 6 11 7 12 14 12 10 9 11 12 14 16 17 17 16 16 16 18 17 16 17 17 18 19 18 15 18 18 18 15 13 15 13 13 14 15 13 12 12 11 11 10 10 9 9 9 8 8 8 8 8 9 8 8 8 8 7 7 7 6 6 6 6 5 4 4 4 4 5 5 6 6 6 6 7 7 7 7 7 7 7 7 7 8 9 9 8 9
12 14 11 14 11 14 12 6 11 11 10 8 14 14 13 14 10 14 15 15 16 17 16 16 16 17 17 18 19 18 18 18 18 17 17 17 17 18 16 17 16 15 14 15 14 13 12 12 11 10 10 9 9 8 8 8 7 7 7 8 8 8 8 8 8 7 7 7 7 7 6 6 6 5 5 5 5 5 5 6 6 6 6 7 7 7 7 7 7 7 8 7 9 9 9 9 9
16 10 14 13 8 12 11 7 8 9 10 8 13 16 10 13 11 19 18 17 17 17 18 18 19 19 17 17 16 17 18 18 18 17 18 17 17 18 18 18 17 15 14 14 14 13 14 12 11 11 10 9 9 9 8 8 8 8 8 8 8 8 8 8 8 7 7 7 7 7 7 6 6 6 5 5 6 6 6 6 6 7 7 8 8 8 8 8 7 7 7 8 9 10 10 10 9
15 12 14 13 10 9 11 10 11 10 8 8 7 11 11 10 10 18 19 19 18 17 17 17 17 18 18 18 17 17 18 17 18 19 18 18 18 17 17 17 16 14 12 12 12 13 12 12 12 11 10 10 10 9 9 9 9 9 9 9 9 9 9 8 8 8 7 7 7 7 6 6 6 6 5 6 6 6 7 7 8 8 9 9 9 8 8 7 7 8 7 8 9 10 10 9 10
15 12 12 14 15 12 13 13 12 12 11 8 8 9 7 7 12 13 16 16 17 17 18 17 18 18 18 14 17 18 18 18 19 18 18 17 18 18 18 15 15 13 13 13 12 12 13 13 11 11 11 10 9 9 9 10 9 9 9 9 9 8 8 8 8 7 7 7 7 6 6 6 6 6 7 7 7 6 7 8 8 9 9 10 10 10 9 8 8 8 8 7 8 9 10 10 10
Wind_Direction
275 257 279 290 281 276 283 269 269 256 243 245 251 238 248 234 236 275 273 257 247 74 25 327 24 282 276 357 327 55 62 235 343 298 25 116 141 128 147 138 130 126 133 130 128 136 136 130 129 127 126 124 123 124 125 124 123 123 124 122 124 126 129 129 132 133 127 123 127 118 112 109 104 101 96 92 92 100 104 105 106 107 102 97 95 92 95 100 97 93 91 88 86 84 79 78 75
279 284 276 266 270 282 276 329 282 283 271 270 265 274 272 278 268 236 264 249 295 50 30 310 306 296 308 293 255 347 86 36 47 84 86 126 132 148 144 137 136 133 134 131 136 137 134 131 129 129 127 126 126 126 127 128 126 126 127 126 128 131 135 134 136 132 127 127 117 115 113 107 105 101 97 95 94 95 96 100 103 101 97 96 96 97 96 96 95 91 92 91 87 84 81 79 79
301 290 261 236 248 250 281 272 263 265 263 257 256 250 245 244 252 260 257 47 48 24 12 328 309 276 238 214 242 225 68 58 92 106 112 143 140 128 151 130 131 135 135 137 136 134 133 131 130 130 128 128 128 129 129 129 130 130 132 134 135 137 138 141 136 124 123 116 115 113 109 107 104 101 97 96 97 100 102 100 100 99 100 99 98 99 99 97 93 94 90 91 87 85 88 86 79
280 279 277 274 275 237 252 262 252 256 264 267 274 277 279 282 263 18 34 52 67 332 344 268 277 70 299 257 25 73 124 156 68 111 123 153 136 148 145 133 135 136 141 138 135 132 130 133 133 132 129 128 131 130 131 131 132 133 135 136 138 139 141 142 134 125 123 120 115 110 109 106 103 101 97 94 91 89 87 87 90 96 100 103 102 101 98 92 93 91 98 95 92 75 73 75 69
267 249 247 263 273 262 260 249 260 255 253 252 257 258 256 256 318 2 38 25 11 288 283 278 260 135 347 351 350 271 83 94 123 142 136 120 131 148 143 137 141 143 146 141 131 126 128 134 134 132 129 130 132 133 133 133 135 137 139 138 139 141 142 140 134 127 123 119 114 110 107 103 101 100 99 97 93 91 90 93 89 87 90 86 83 83 81 85 89 90 80 75 69 68 61 67 71
245 258 208 253 243 324 276 259 254 253 257 269 270 272 279 336 289 77 95 63 289 333 272 269 267 213 194 77 24 74 132 208 126 117 122 137 143 147 140 140 145 150 144 135 127 126 132 133 134 133 131 130 135 136 134 135 137 140 141 140 139 136 138 135 131 128 121 114 110 111 107 106 103 99 95 94 93 91 90 89 86 81 87 99 101 89 84 83 85 95 90 74 70 61 50 48 61
234 221 215 220 249 248 251 255 259 260 256 253 256 262 268 306 295 137 231 253 212 268 186 254 236 261 243 133 93 62 60 88 171 120 132 135 139 144 142 144 156 147 137 131 130 126 128 129 131 135 133 136 137 137 137 136 136 135 139 137 133 136 136 134 130 127 120 114 112 111 106 102 101 99 98 95 93 90 88 85 88 90 88 92 93 96 95 95 91 73 64 60 61 58 64 64 60
257 266 201 225 242 210 233 248 253 255 255 254 259 258 255 209 114 213 275 256 260 235 200 241 245 243 61 122 136 54 50 13 77 113 130 138 139 144 146 148 154 144 138 127 119 112 125 126 132 135 136 137 139 140 135 137 135 134 132 134 134 133 136 134 128 118 113 114 115 109 104 103 103 103 100 98 93 92 89 89 90 92 92 87 85 88 91 88 86 85 76 83 47 55 76 76 75
225 231 255 248 240 240 242 243 253 246 256 258 258 264 289 316 255 297 253 266 268 252 235 211 216 231 174 164 76 89 90 97 101 119 136 136 141 145 150 154 149 144 139 117 111 125 127 129 133 136 138 139 140 141 136 137 136 136 133 133 134 133 135 129 123 120 120 118 114 109 106 105 103 100 99 97 93 91 89 88 88 92 95 95 99 102 105 97 99 111 112 95 57 56 94 104 87
226 216 215 233 250 248 250 246 243 246 253 246 252 250 237 254 255 244 259 251 248 251 237 246 231 232 102 132 119 136 108 104 117 131 136 138 139 146 152 152 154 140 115 112 126 126 125 132 132 135 138 141 141 141 137 136 136 135 134 133 134 133 130 126 120 118 119 115 112 108 105 103 102 101 100 99 99 96 93 91 90 94 99 101 110 122 122 124 121 125 109 57 43 72 128 116 117
227 196 254 235 229 244 244 250 248 239 247 249 247 245 271 257 227 252 242 251 249 245 237 226 229 211 195 101 85 62 123 122 133 142 145 143 141 153 150 162 148 147 121 127 129 125 131 132 132 133 137 138 138 134 127 131 126 119 126 128 135 133 129 125 124 124 122 115 111 110 108 109 105 101 100 102 100 98 98 99 99 99 98 111 121 126 129 130 125 94 58 15 25 110 132 143 124
228 209 203 233 238 240 243 247 254 257 250 245 234 233 236 247 238 240 240 239 236 241 244 195 236 201 215 130 134 145 135 136 144 147 150 145 148 151 155 155 144 135 124 130 127 134 131 132 135 136 134 132 125 123 122 120 115 118 122 127 130 131 128 127 125 121 116 114 114 112 111 110 108 105 105 105 104 103 102 105 104 103 112 118 122 120 122 115 110 81 65 37 12 86 164 145 147
237 214 214 232 237 242 250 254 254 258 261 225 229 233 209 214 231 235 242 240 238 240 226 222 238 190 212 140 108 140 156 149 147 148 151 154 150 151 152 146 142 126 132 136 138 137 134 136 131 140 131 122 116 106 106 110 112 114 123 124 131 135 132 129 127 124 121 117 115 114 112 112 112 112 110 107 105 108 107 104 108 109 116 124 127 124 123 129 115 114 80 55 47 189 167 163 162
228 230 226 236 239 252 252 253 247 248 235 249 231 178 137 206 227 243 239 242 233 232 233 217 225 196 119 109 144 159 159 154 146 148 153 152 149 150 144 143 139 136 139 142 143 142 144 135 138 129 138 138 132 117 107 108 120 120 119 126 131 132 132 127 126 124 121 121 119 120 122 122 119 120 119 114 108 105 110 114 114 117 123 125 134 138 134 132 137 120 105 87 113 176 178 173 170
230 234 249 250 247 241 241 252 251 241 254 244 115 137 174 210 255 243 250 249 243 234 234 215 221 203 155 180 167 170 158 151 150 153 152 147 151 146 139 146 140 140 148 151 146 153 148 139 134 140 142 138 139 140 141 124 111 108 111 121 131 134 133 133 130 128 127 126 128 134 141 140 136 130 129 126 125 121 113 119 115 119 125 134 128 132 136 129 133 137 140 135 156 187 180 178 181
233 235 236 245 241 247 235 233 243 265 264 191 119 136 211 234 212 239 233 250 268 222 232 203 201 241 137 188 154 154 153 149 153 154 146 144 148 143 142 146 142 149 156 155 150 155 146 142 139 149 145 145 146 140 136 139 121 123 117 112 129 137 137 134 130 132 133 134 143 154 151 151 146 138 140 137 132 131 129 99 120 118 120 134 141 141 142 143 147 155 156 158 160 181 185 184 182
234 251 237 230 244 234 242 245 226 229 228 107 136 195 213 233 184 229 269 235 248 241 201 223 179 186 158 193 148 145 151 149 148 148 148 147 142 147 149 148 151 153 159 158 152 151 137 145 148 146 153 151 141 134 137 138 135 137 136 126 131 137 137 137 137 141 148 151 162 162 167 165 153 137 167 137 153 132 107 119 123 119 119 132 146 145 150 160 163 164 165 177 185 186 188 186 187
207 221 232 230 234 238 232 245 239 242 239 136 178 165 224 238 184 217 198 234 241 229 193 212 191 179 119 121 136 143 154 150 152 154 153 147 150 150 153 153 154 157 158 156 152 149 145 149 147 147 146 141 142 139 136 137 144 163 152 156 151 143 148 148 157 159 159 155 174 165 180 173 145 141 143 147 136 133 134 129 131 128 132 134 141 160 159 169 173 175 183 200 216 197 193 194 185
212 216 224 236 225 239 244 268 232 211 239 148 117 140 243 253 344 159 235 207 212 215 200 206 173 86 101 117 135 152 150 152 156 160 155 154 155 153 156 159 160 161 158 156 151 151 150 148 149 144 140 145 145 137 137 137 158 152 148 162 148 159 157 167 167 168 160 168 170 174 179 181 153 146 111 72 109 116 130 146 142 152 153 151 155 161 174 177 188 193 200 204 214 217 209 218 188
214 229 224 231 242 240 312 291 303 248 351 160 212 155 211 246 229 35 245 222 199 214 200 172 166 121 137 144 148 150 153 154 159 160 158 158 159 158 157 162 164 160 157 157 150 151 152 146 140 142 143 145 148 144 148 148 158 149 159 156 165 168 166 173 175 166 166 171 143 147 172 144 184 127 116 185 165 162 150 161 162 163 164 165 168 179 182 188 198 213 219 219 222 223 225 229 212
194 230 236 231 222 242 202 222 247 272 236 237 223 222 239 226 226 244 241 246 201 210 197 184 178 157 155 153 152 158 156 158 161 164 163 166 167 163 160 164 165 156 155 148 145 149 143 140 141 142 141 143 143 143 143 147 155 161 157 155 167 170 172 166 170 168 150 161 155 180 172 178 208 164 173 183 206 186 169 172 170 182 185 182 181 202 183 182 192 200 210 218 219 232 236 241 250
218 225 237 248 235 287 339 214 234 236 228 259 232 233 229 66 247 237 242 246 214 201 192 191 163 160 152 154 158 161 159 161 167 166 165 169 168 160 162 157 155 155 148 154 148 147 142 145 146 140 143 145 143 156 149 146 165 155 150 167 151 181 165 170 171 176 159 163 180 176 159 201 207 170 183 190 170 191 186 176 185 189 196 182 174 222 214 176 191 206 202 201 220 229 235 253 263
233 221 231 239 256 264 241 210 213 212 216 221 226 226 265 272 254 235 231 236 249 194 207 183 154 154 153 168 163 167 163 167 170 169 168 165 165 160 157 157 155 152 160 150 150 146 141 145 144 144 144 147 162 153 143 158 161 149 155 162 149 172 158 154 169 167 158 169 194 169 203 189 188 176 171 183 183 198 205 183 189 141 196 213 179 247 217 229 250 239 222 223 241 246 247 239 237
224 238 214 230 246 230 255 235 146 214 242 237 230 263 254 244 243 220 233 227 248 315 173 164 137 147 154 173 169 169 169 169 169 172 168 161 156 156 154 156 152 151 144 149 145 146 146 146 145 147 149 158 156 138 156 159 141 147 140 143 158 157 161 166 149 168 146 173 178 199 193 206 191 171 163 172 179 150 176 192 246 199 186 249 140 269 242 236 231 254 259 267 248 249 251 244 240
217 232 238 224 231 225 223 225 190 223 229 233 240 242 240 237 250 251 243 229 197 179 87 123 132 148 163 173 170 171 170 170 169 166 164 156 151 152 153 148 149 146 141 151 147 146 144 147 150 149 154 157 153 155 157 144 140 145 155 168 145 165 161 159 151 147 173 167 183 187 197 211 198 170 174 184 178 196 39 253 238 236 253 280 352 258 307 323 279 249 248 247 245 253 259 253 254
220 228 235 239 232 217 218 228 230 229 230 227 229 234 239 241 244 255 254 241 169 183 173 166 154 174 176 174 168 174 171 167 159 161 157 156 152 153 153 153 150 150 150 148 147 151 150 154 155 157 158 158 155 161 154 143 155 156 160 156 143 178 148 144 150 168 165 164 170 181 195 202 201 208 193 270 180 239 185 195 230 212 226 14 302 318 359 286 300 289 258 249 258 242 247 258 253
204 222 236 237 220 231 226 233 231 232 236 227 236 230 231 230 225 238 226 219 158 174 175 166 168 177 182 172 171 174 169 164 161 156 155 151 152 152 155 155 156 147 148 150 151 147 152 154 159 158 163 155 163 157 153 149 158 159 155 150 163 163 151 154 162 153 153 153 149 159 173 252 347 289 194 225 207 204 223 218 236 222 175 86 297 277 271 251 246 262 273 276 287 292 281 268 249
232 244 224 235 227 222 225 222 236 223 222 224 232 235 235 236 217 246 206 155 163 189 178 169 172 174 181 176 173 171 166 161 159 159 154 153 159 158 161 162 157 153 155 153 154 148 158 158 155 161 153 155 167 145 152 158 161 157 151 158 154 148 145 147 153 155 156 153 163 172 185 234 208 185 243 206 191 204 194 206 232 255 244 182 194 218 218 249 268 274 294 308 296 285 283 279 271
229 215 239 226 226 228 220 225 215 219 231 209 218 238 229 231 227 223 161 162 171 191 178 178 179 179 181 180 173 167 160 158 153 152 159 161 159 160 159 157 152 157 153 156 144 149 162 159 159 156 154 164 153 151 157 159 152 150 150 142 136 145 155 122 83 87 154 159 174 180 183 190 198 181 132 239 171 189 153 208 199 199 231 269 291 299 291 276 268 266 256 250 261 265 263 261 274
233 226 239 226 220 227 221 220 223 214 225 209 202 223 223 224 220 199 151 170 186 198 189 186 185 178 181 174 169 110 136 144 158 171 165 160 158 156 148 156 153 153 151 153 149 160 161 156 153 152 159 159 155 158 157 153 146 146 145 144 145 160 125 129 148 133 200 173 173 172 168 171 185 156 170 163 217 194 191 225 233 230 284 297 277 254 257 260 276 288 293 283 274 270 269 273 267
220 211 220 239 220 223 212 214 207 223 204 211 196 234 226 216 210 163 166 167 197 196 182 196 190 182 173 144 105 179 165 171 165 166 156 155 153 150 152 158 156 151 149 153 161 162 159 158 157 154 162 158 158 151 147 143 148 142 153 154 155 159 142 165 174 183 190 166 168 152 158 164 171 173 167 181 208 212 210 199 222 203 324 292 272 271 283 290 281 281 285 286 287 283 280 281 279
213 215 216 220 237 223 209 196 202 210 196 203 206 230 237 225 173 152 153 160 192 209 192 189 196 174 170 146 178 157 156 153 154 150 152 150 152 151 150 155 154 154 152 156 162 162 163 161 157 155 156 152 151 143 141 146 147 145 149 135 153 157 172 157 165 163 161 161 157 148 157 158 174 181 188 186 208 241 227 203 201 148 232 253 272 284 275 274 275 275 277 278 284 282 282 278 276
205 220 217 213 215 238 215 181 195 203 201 192 210 226 223 38 112 147 143 165 200 170 38 26 9 17 112 234 116 37 115 176 151 154 147 145 140 140 144 153 155 153 156 159 162 167 163 156 152 147 146 141 131 127 123 130 151 147 144 156 154 175 158 163 154 160 153 151 150 147 151 156 174 166 196 183 243 260 242 233 131 175 233 277 289 278 279 290 291 290 289 288 286 289 288 285 282
204 207 225 214 208 220 214 160 195 192 211 194 205 227 232 161 168 136 98 68 70 80 85 74 51 30 40 34 52 123 42 124 155 170 139 138 142 146 154 154 153 159 157 162 162 165 154 147 146 127 128 130 144 137 145 152 148 155 141 175 162 170 170 159 159 150 139 136 141 129 141 140 151 140 170 194 219 279 343 339 12 343 292 299 288 285 290 295 301 301 300 297 297 296 293 296 298
197 195 214 215 209 217 217 185 181 198 202 211 196 219 235 138 193 125 78 86 57 45 101 117 113 94 49 41 64 152 157 161 136 108 214 136 141 141 143 151 139 149 149 151 151 140 136 99 91 112 116 121 125 141 148 172 178 144 162 172 162 179 174 162 141 145 127 125 122 121 126 131 149 149 165 256 326 333 324 351 329 326 306 294 295 293 298 303 306 304 303 305 303 294 297 298 299
208 198 205 219 206 200 224 168 185 195 193 214 195 210 229 192 134 105 128 139 150 166 107 117 121 137 135 125 151 208 176 138 138 146 146 99 63 47 30 24 2 18 116 114 115 103 100 117 118 105 147 140 138 169 157 183 174 170 173 160 221 186 101 139 148 122 125 121 116 125 114 123 115 90 57 30 10 360 333 345 342 322 307 300 297 309 315 317 322 316 311 309 306 301 299 296 295
212 208 206 220 217 200 211 207 175 187 200 207 204 209 226 215 129 124 117 145 154 157 167 158 160 148 139 132 168 208 152 129 143 131 122 122 108 110 118 125 67 8 25 20 23 30 27 69 187 186 167 153 179 163 174 168 171 168 165 153 188 198 151 152 118 104 99 88 97 94 94 81 68 55 47 25 12 358 345 338 327 328 314 305 318 316 320 321 320 318 315 310 309 305 304 298 303
258 221 205 214 212 212 199 192 155 185 210 195 216 207 222 219 129 133 130 141 144 150 158 156 152 146 146 135 128 149 352 126 131 122 126 122 117 122 125 135 145 123 103 82 64 66 219 204 273 157 161 170 181 168 166 196 179 178 132 150 260 156 132 142 108 102 100 95 92 87 81 70 63 56 39 32 25 2 355 334 326 319 319 329 321 316 316 319 319 328 321 317 308 301 302 315 314
222 243 198 213 203 227 187 185 167 189 209 209 201 218 215 223 128 139 153 158 141 153 162 158 154 155 176 145 151 163 173 207 170 152 142 131 134 130 138 136 153 139 139 121 117 142 166 210 229 200 202 163 198 142 191 201 200 198 173 204 198 99 99 91 95 101 101 99 81 72 65 55 44 38 27 19 14 7 360 349 346 342 339 339 330 327 326 323 329 325 329 325 316 311 302 307 306
218 225 205 209 200 211 183 174 168 193 205 210 193 210 141 84 115 131 162 144 145 165 162 156 166 166 192 172 145 159 175 181 180 162 152 137 139 126 124 139 157 138 128 110 110 157 163 216 200 183 204 186 152 187 195 216 191 167 276 152 159 126 122 107 109 98 89 86 83 66 61 45 40 35 23 16 16 9 360 354 345 350 344 345 338 330 332 329 331 332 331 327 320 319 316 317 314
217 221 217 209 205 209 216 153 171 190 202 235 196 204 162 136 120 142 154 144 147 157 160 161 179 187 190 304 151 165 174 182 174 158 145 142 137 133 141 142 136 129 117 119 139 154 115 216 112 80 349 90 269 211 255 235 122 169 211 123 113 110 109 108 104 97 81 85 88 78 58 42 41 35 27 23 19 18 6 0 354 349 351 352 349 339 338 337 334 330 340 332 332 325 321 320 313
209 221 229 222 214 208 192 168 179 185 203 215 230 196 211 160 152 142 164 158 166 168 162 167 179 177 190 169 158 159 170 170 161 147 134 132 131 133 140 145 137 139 132 130 135 112 110 179 153 154 213 182 211 239 154 56 258 196 192 147 128 123 115 103 93 93 105 83 76 75 65 47 45 38 27 31 27 18 16 12 9 357 358 357 359 345 341 335 338 343 342 335 330 330 322 317 311
208 197 227 243 231 219 197 174 185 193 205 186 217 219 209 173 165 189 184 180 174 162 166 172 174 182 182 170 163 165 166 159 153 142 139 130 124 133 138 141 140 139 130 131 109 120 131 180 163 236 185 170 217 206 184 240 197 160 104 98 99 105 107 84 84 84 85 82 77 65 64 51 39 46 37 33 32 24 12 13 14 10 3 355 348 345 348 347 344 340 340 337 333 328 328 316 317
214 190 201 229 258 243 180 193 197 205 212 183 203 215 236 196 190 166 190 192 173 162 178 185 181 186 184 177 168 164 163 160 156 146 133 126 127 131 140 144 138 123 121 132 133 139 138 155 175 207 249 106 226 183 237 179 169 118 96 90 85 88 87 99 100 91 81 84 76 64 64 64 51 46 46 37 31 33 25 18 13 13 360 5 350 354 351 352 345 339 340 340 334 333 328 322 319
215 184 185 204 231 230 191 198 202 223 194 210 192 206 235 239 177 163 180 195 183 169 183 191 189 192 186 179 175 171 167 162 155 142 135 131 127 128 139 133 116 122 130 126 123 103 106 132 146 175 63 93 156 170 149 108 86 92 93 103 101 90 106 114 116 103 93 77 75 70 66 63 65 52 41 35 27 26 23 24 24 13 5 359 353 357 345 347 346 338 336 340 339 333 327 323 321
224 186 182 196 213 230 220 202 215 207 219 214 195 195 223 228 151 167 179 198 187 185 183 191 189 187 181 176 182 164 164 159 147 138 130 129 134 136 126 118 122 135 129 115 113 111 123 141 135 125 134 159 260 123 101 77 72 73 81 87 99 117 123 112 104 95 81 79 73 68 71 60 49 55 50 36 20 18 15 16 12 8 3 358 355 352 346 346 344 339 338 334 334 335 332 332 336
202 144 185 193 204 211 213 237 229 220 224 226 199 195 218 229 171 182 175 195 191 185 184 185 189 184 179 188 171 175 151 146 130 137 135 133 127 125 136 137 138 129 116 108 109 120 118 133 106 135 133 129 122 81 73 75 71 67 73 77 84 92 92 88 99 84 71 66 71 69 65 63 52 45 35 43 26 19 21 19 11 9 13 9 3 354 356 347 343 345 334 335 338 340 336 330 329
187 180 188 184 197 201 208 220 233 235 231 206 209 210 198 236 163 193 187 189 194 193 181 182 189 184 181 180 172 158 156 145 136 138 137 123 126 144 146 132 128 122 120 116 118 125 118 94 109 130 106 90 90 71 63 54 60 65 72 77 64 57 68 77 71 73 70 74 65 70 71 69 68 61 39 34 27 22 20 21 19 16 15 6 5 354 351 343 345 345 336 339 339 344 331 334 336
189 187 192 186 178 185 203 196 208 223 228 196 201 218 210 221 225 188 178 189 186 187 185 179 182 183 170 158 181 160 153 141 139 140 133 130 141 154 144 130 129 125 119 123 121 114 112 123 131 114 117 115 84 71 75 70 65 72 82 81 79 62 62 77 82 80 80 79 78 74 71 68 57 58 42 36 32 26 26 24 17 17 13 11 6 3 354 357 1 342 347 348 352 344 353 347 334
188 188 194 192 185 188 200 199 210 223 222 235 197 208 234 200 227 179 186 188 186 186 184 177 184 169 175 169 176 159 147 146 142 142 136 138 148 147 136 134 133 131 127 123 119 121 122 124 128 128 112 86 81 82 86 84 79 75 73 78 85 93 90 84 83 81 75 75 75 72 66 63 66 53 50 42 29 27 31 29 23 23 17 13 11 6 359 2 358 351 357 3 353 357 353 346 335
193 195 206 209 202 189 194 202 201 211 207 206 227 213 212 207 215 183 174 181 186 182 175 174 179 177 174 167 154 145 142 140 142 140 140 143 144 144 146 141 134 131 132 133 131 128 129 132 128 122 119 113 106 100 92 84 82 79 78 79 79 93 91 86 80 75 73 79 76 75 70 67 66 60 48 45 36 38 34 33 29 22 18 15 9 8 2 5 359 355 2 1 358 358 349 344 343
196 200 218 220 219 177 210 203 235 211 208 202 202 248 197 201 32 119 160 162 178 179 180 171 181 185 166 163 150 148 145 134 139 140 139 140 149 150 144 139 135 137 140 136 132 132 128 126 125 124 123 114 102 94 94 92 88 86 83 86 86 87 93 95 91 83 83 76 77 75 71 67 65 65 59 47 48 40 32 26 25 28 18 13 11 8 7 8 360 6 2 3 3 357 347 347 349
177 200 212 215 218 210 200 170 22 10 259 213 186 205 141 73 163 132 180 176 180 177 182 177 176 172 152 128 145 148 138 138 143 141 145 152 144 135 138 139 139 142 141 135 133 129 127 126 128 126 118 114 107 99 97 93 89 86 84 84 84 83 83 86 91 93 88 83 81 78 77 72 66 61 58 52 46 42 39 19 26 19 20 16 12 13 8 11 3 13 5 4 5 357 350 352 352
169 208 208 211 225 233 212 216 172 229 206 212 191 201 184 187 188 187 178 181 171 182 179 160 161 160 134 148 157 152 138 144 144 145 144 142 142 142 141 140 140 139 135 131 127 128 127 127 127 125 122 116 113 109 103 100 97 89 87 90 89 88 88 88 90 95 96 94 89 86 79 73 72 71 66 59 46 43 38 29 24 27 19 19 17 15 10 11 7 14 5 8 10 356 355 353 354
212 203 193 211 181 216 208 220 202 197 210 214 191 196 221 200 193 169 188 187 178 178 163 159 171 155 149 152 160 146 136 144 148 141 145 148 149 146 145 142 139 136 134 130 131 132 130 126 121 117 113 109 108 107 104 97 97 99 99 96 96 95 93 91 89 82 79 75 76 80 79 77 71 60 55 48 47 41 33 33 24 24 20 18 17 16 11 16 15 13 10 10 6 357 358 357 357
237 211 207 214 224 212 205 213 225 199 212 220 211 211 228 202 198 172 172 191 176 181 172 179 173 169 157 160 155 139 141 150 150 146 150 149 148 145 144 140 136 136 135 136 135 130 122 118 115 110 109 106 103 102 102 102 100 103 104 104 101 96 93 90 87 89 89 92 92 85 81 76 66 63 59 51 44 42 35 32 35 26 26 19 22 17 12 14 19 17 14 11 4 1 1 359 354
199 213 205 189 227 205 231 191 216 201 213 206 213 208 219 207 171 170 175 181 182 182 177 173 169 172 154 159 151 145 147 149 147 148 150 150 147 145 141 133 134 137 136 134 134 128 121 119 115 114 110 109 104 104 105 101 103 100 99 97 95 93 92 92 91 87 86 86 86 84 79 77 73 68 63 58 51 40 41 37 33 35 24 23 20 19 13 12 19 13 15 14 8 6 0 359 356
199 202 209 199 198 195 200 213 195 222 210 202 202 225 214 201 148 182 174 182 182 184 184 180 168 169 150 149 146 148 148 150 148 151 150 149 147 143 136 129 134 134 130 128 127 126 124 120 122 121 119 114 119 111 106 108 105 105 106 101 97 96 94 94 91 88 90 89 87 87 86 83 76 66 63 61 55 47 46 43 38 33 29 26 21 21 14 9 12 9 10 17 9 3 3 1 360